SCP
0 0 0 0 0 0 0 0 0 0 0 0 0 0 -0 -0 -0 0 0 0 0 0 0 0 0 0 0 0 0 0 0 0 0 0 0 0 0 0 0 0 0 0 -0 -0 -0
0 0 0 0 0 0 0 0 0 0 0 0 0 0 0 0 0 0 0 0 0 0 0 0 0 0 0 0 0 0 0 0 0 0 0 0 0 0 0 0 0 0 0 0 0
0 0 0 0 0 0 0 0 0 0 0 0 0 0 0 0 0 0 0 0 0 0 0 0 0 0 0 0 0 0 0 0 0 0 0 0 0 0 0 0 0 0 0 0 0
0 0 0 0 0 0 0 0 0 0 0 0 0 0 0 0 0 0 0 0 0 0 0 0 0 0 0 0 0 0 0 0 0 0 0 0 0 0 0 0 0 0 0 0 0
0 0 0 0 0 0 0 0 0 0 0 0 0 0 0 0 0 0 0 0 0 0 0 0 0 0 0 0 0 0 0 0 0 0 0 0 0 0 0 0 0 0 0 0 0
0 0 0 0 0 0 0 0 0 0 0 0 0 0 0 0 0 0 0 0 0 0 0 0 0 0 0 0 0 0 0 0 0 0 0 0 0 0 0 0 0 0 0 0 0
0 0 0 0 0 0 0 0 0 0 0 0 0 0 0 0 0 0 0 0 0 0 0 0 0 0 0 0 0 0 0 0 0 0 0 0 0 0 0 0 0 0 0 0 0
0 0 0 0 0 0 0 0 0 0 0 0 0 0 0 0 0 0 0 0 0 0 0 0 0 0 0 0 0 0 0 0 0 0 0 0 0 0 0 0 0 0 0 0 0
0 0 0 0 0 0 0 0 0 0 0 0 0 0 0 0 0 0 0 0 0 0 0 0 0 0 0 0 0 0 0 0 0 0 0 0 0 0 0 0 0 0 0 0 0
0 0 0 0 0 0 0 0 0 0 0 0 0 0 0 0 0 0 0 0 0 0 0 0 0 0 0 0 0 0 0 0 0 0 0 0 0 0 0 0 0 0 0 0 0
0 0 0 0 0 0 0 0 0 0 0 0 0 0 0 0 0 0 0 0 0 0 0 0 0 0 0 0 0 0 0 0 0 0 0 0 0 0 0 0 0 0 0 0 0
0 0 0 0 0 0 0 0 0 0 0 0 0 0 0 0 0 0 0 0 0 0 0 0 0 0 0 0 0 0 0 0 0 0 0 0 0 0 0 0 0 0 0 0 0
0 0 0 0 0 0 0 0 0 0 0 0 0 0 0 0 0 0 0 0 0 0 0 0 0 0 0 0 0 0 0 0 0 0 0 0 0 0 0 0 0 0 0 0 0
0 0 0 0 0 0 0 0 0 0 0 0 0 0 0 0 0 0 0 0 0 0 0 0 0 0 0 0 0 0 0 0 0 0 0 0 0 0 0 0 0 0 0 0 0
0 0 0 0 0 0 0 0 0 0 0 0 0 0 0 0 0 0 0 0 0 0 0 0 0 0 0 0 0 0 0 0 0 0 0 0 0 0 0 0 0 0 0 0 0
0 0 0 0 0 0 0 0 0 0 0 0 0 0 0 0 0 0 0 0 0 0 0 0 0 0 0 0 0 0 0 0 0 0 0 0 0 0 0 0 0 0 0 0 0
0 0 0 0 0 0 0 0 0 0 0 0 0 0 0 0 0 0 0 0 0 0 0 0 0 0 0 0 0 0 0 0 0 0 0 0 0 0 0 0 0 0 0 0 0
0 0 0 0 0 0 0 0 0 0 0 0 0 0 0 0 0 0 0 0 0 0 0 0 0 0 0 0 0 0 0 0 0 0 0 0 0 0 0 0 0 0 0 0 0
0 0 0 0 0 0 0 0 0 0 0 0 0 0 0 0 0 0 0 0 0 0 0 0 0 0 0 0 0 0 0 0 0 0 0 0 0 0 0 0 0 0 0 0 0
0 0 0 0 0 0 0 0 0 0 0 0 0 0 0 0 0 0 0 0 0 0 0 0 0 0 0 0 0 0 0 0 0 0 0 0 0 0 0 0 0 0 0 0 0
0 0 0 0 0 0 0 0 0 0 0 0 0 0 0 0 0 0 0 0 0 0 0 0 0 0 0 0 0 0 0 0 0 0 0 0 0 0 0 0 0 0 0 0 0
0 0 0 0 0 0 0 0 0 0 0 0 0 0 0 0 0 0 0 0 0 0 0 0 0 0 0 0 0 0 0 0 0 0 0 0 0 0 0 0 0 0 0 0 0
0 0 0 0 0 0 0 0 0 0 0 0 0 0 0 0 0 0 0 0 0 0 0 0 0 0 0 0 0 0 0 0 0 0 0 0 0 0 0 0 0 0 0 0 0
0 0 0 0 0 0 0 0 0 0 0 0 0 0 0 0 0 0 0 0 0 0 0 0 0 0 0 0 0 0 0 0 0 0 0 0 0 0 0 0 0 0 0 0 0
0 0 0 0 0 0 0 0 0 0 0 0 0 0 0 0 0 0 0 0 0 0 0 0 0 0 0 0 0 0 0 0 0 0 0 0 0 0 0 0 0 0 0 0 0
0 0 0 0 0 0 0 0 0 0 0 0 0 0 0 0 0 0 0 0 0 0 0 0 0 0 0 0 0 0 0 0 0 0 0 0 0 0 0 0 0 0 0 0 0
0 0 0 0 0 0 0 0 0 0 0 0 0 0 0 0 0 0 0 0 0 0 0 0 0 0 0 0 0 0 0 0 0 0 0 0 0 0 0 0 0 0 0 0 0
Wind_Speed_500mb
7 6 5 4 4 4 4 4 5 4 7 8 9 11 10 12 14 14 11 8 9 11 12 9 6 3 4 6 6 6 6 10 15 15 12 8 10 4 2 2 5 4 3 8 14
11 10 9 9 9 9 8 9 9 9 10 11 12 13 13 13 14 13 9 9 11 13 14 12 9 7 5 4 4 3 4 9 6 8 13 11 5 5 7 3 7 5 2 2 4
17 15 14 14 14 13 13 13 12 12 12 13 14 14 14 15 14 3 3 6 11 14 15 13 12 6 6 3 3 1 1 8 9 8 8 9 5 5 5 6 4 6 8 3 3
23 22 20 18 19 18 17 16 16 16 15 15 15 15 14 11 6 4 5 7 10 15 17 18 9 3 3 3 2 4 4 7 8 10 8 6 5 6 10 5 13 7 11 4 0
30 27 25 24 23 23 22 20 19 19 19 18 17 16 15 8 11 11 9 9 12 15 17 11 6 5 5 6 5 5 6 7 9 12 9 9 14 7 12 19 15 12 9 2 4
37 34 30 28 28 27 26 25 23 21 21 20 20 18 15 11 14 15 15 16 17 18 18 12 6 8 10 5 5 3 5 8 10 10 12 12 8 9 11 22 21 15 10 8 5
42 40 37 33 32 31 30 28 27 25 23 22 21 20 22 24 17 16 17 18 20 21 19 15 10 9 13 8 3 0 8 11 15 10 11 16 8 17 21 27 18 13 8 4 3
47 44 42 39 36 34 32 31 29 27 25 23 20 18 15 21 24 28 25 22 22 22 20 16 15 14 7 15 5 2 4 8 7 9 5 16 7 14 30 25 15 9 4 2 4
53 48 46 42 40 37 34 32 30 29 26 23 20 15 12 21 27 30 25 23 23 21 20 21 21 8 11 9 6 5 11 14 5 6 5 15 2 20 26 19 13 10 8 6 3
56 53 48 45 43 40 35 33 30 30 28 23 24 10 27 15 21 27 29 26 21 26 22 15 7 8 7 15 16 13 11 10 13 6 9 12 20 19 21 17 13 13 11 8 6
59 56 51 46 43 41 35 25 22 17 31 23 10 10 5 24 22 24 32 34 26 17 16 7 14 25 36 32 7 3 8 18 5 2 7 21 25 23 20 16 19 18 14 13 12
60 59 54 47 44 41 36 22 19 7 15 30 45 38 17 25 17 30 38 24 19 18 18 10 27 28 5 17 15 11 17 28 10 6 8 17 26 27 26 22 26 27 26 23 23
63 60 55 47 40 42 43 39 26 12 12 17 42 44 43 42 22 41 50 24 12 18 32 24 5 17 18 15 21 22 27 24 17 4 9 11 30 37 15 16 17 25 27 29 34
63 62 48 37 35 42 45 38 23 5 11 13 17 19 35 35 16 34 55 19 10 28 19 17 8 14 21 20 25 28 24 19 15 8 18 4 15 10 17 19 24 31 35 36 35
63 56 50 56 28 43 43 31 34 12 15 8 10 12 27 23 28 19 45 20 17 16 14 11 18 19 21 19 23 12 10 18 13 19 12 15 14 14 8 21 27 39 40 41 40
73 60 55 57 54 41 33 38 44 9 26 11 11 14 19 9 7 13 20 10 10 10 3 8 2 9 8 6 13 26 13 10 5 4 15 30 26 13 16 16 26 42 50 51 50
73 67 69 69 72 49 41 56 12 26 9 16 13 17 17 14 11 14 24 24 20 16 28 8 18 8 9 10 5 14 22 7 9 10 14 1 21 24 14 10 15 48 56 52 51
76 73 74 76 72 62 64 17 24 31 40 7 11 15 21 18 10 14 18 24 31 11 7 21 14 30 27 35 19 34 28 13 14 11 4 5 16 11 1 13 9 30 53 56 56
79 82 83 88 83 76 62 32 35 33 29 23 13 12 20 12 12 17 25 19 26 33 24 18 13 6 8 7 28 16 20 5 8 3 5 12 10 14 8 11 14 28 49 58 60
94 92 102 99 94 91 37 45 36 28 20 28 41 29 34 26 25 31 29 17 16 40 22 11 11 3 5 6 1 11 21 9 8 11 13 11 13 18 18 27 21 29 49 56 57
53 37 85 107 107 78 32 42 52 34 33 33 40 30 18 24 32 22 26 12 28 24 43 9 9 7 12 23 34 13 14 9 6 9 8 9 11 11 25 30 36 44 51 60 65
54 17 44 113 43 33 40 71 55 47 37 30 14 38 29 28 29 33 38 29 51 35 31 21 5 12 23 2 4 22 21 27 13 13 9 6 12 7 4 18 34 37 45 52 63
30 26 73 104 30 29 30 53 42 39 51 29 24 22 20 27 21 36 24 18 39 37 35 25 11 10 7 7 4 17 19 27 13 4 25 14 10 6 8 10 22 27 36 49 61
19 5 24 69 46 47 47 44 49 65 36 60 38 23 11 27 26 18 24 14 41 41 42 50 16 32 34 11 20 21 29 29 34 20 32 40 22 15 16 18 23 29 38 47 61
26 10 9 9 24 30 43 24 51 43 51 54 29 52 49 34 37 47 18 8 10 18 18 23 30 39 42 19 13 16 36 42 51 62 31 40 40 28 30 30 38 39 39 44 59
24 9 5 7 8 33 31 35 43 39 22 41 48 48 44 51 51 31 39 27 20 17 18 4 25 33 38 41 29 26 33 50 55 54 52 31 31 16 39 24 22 35 41 51 64
43 39 20 8 1 9 19 28 27 16 3 8 25 39 44 56 57 43 19 31 24 31 35 25 28 15 32 29 9 13 53 40 35 42 39 40 29 13 14 28 36 36 46 57 58
Wind_Direction_500mb
201 207 240 245 251 269 270 269 279 286 298 308 311 313 317 317 315 306 289 236 214 210 204 196 191 175 124 77 74 122 180 171 173 178 147 150 173 168 243 153 86 108 170 246 270
232 243 251 261 267 270 270 274 281 293 301 310 311 311 316 318 315 296 267 229 208 194 187 188 186 160 96 75 31 271 237 163 169 163 152 146 165 168 186 171 147 124 29 325 309
252 254 260 262 263 265 268 272 279 287 294 302 306 309 313 321 317 261 209 197 184 182 179 177 156 142 105 86 27 32 272 146 176 166 146 154 181 157 199 204 116 158 179 154 113
250 257 263 262 266 265 267 273 278 281 287 293 299 304 306 312 282 210 179 156 163 161 160 155 153 93 105 158 113 197 153 157 145 188 162 191 157 198 213 173 193 189 183 175 338
249 252 258 263 262 266 269 270 274 280 286 291 295 302 307 283 250 229 218 204 183 173 173 179 173 150 197 154 159 206 180 197 176 192 220 211 222 242 179 190 207 194 168 195 301
253 253 253 256 259 260 265 270 273 275 279 285 290 293 290 257 254 239 231 218 208 199 195 196 200 172 124 158 228 148 221 251 244 218 210 212 218 193 194 188 179 170 180 189 202
250 255 255 253 253 256 259 263 268 270 275 280 284 285 277 261 252 234 228 219 212 206 209 207 196 167 145 142 150 31 282 276 231 205 217 180 203 225 173 163 159 168 165 145 108
246 251 254 254 251 252 258 262 264 267 272 278 280 279 257 257 245 234 224 216 210 207 205 196 178 158 123 134 76 258 261 255 132 167 171 195 209 157 166 165 157 142 127 67 26
246 246 249 250 250 250 255 260 263 266 270 272 272 253 255 246 233 229 215 211 202 192 185 178 166 128 138 190 202 214 255 228 283 188 152 217 215 156 174 185 175 168 168 171 124
244 243 244 246 248 250 252 257 262 267 267 269 252 253 235 223 214 210 202 189 171 168 145 158 134 179 178 198 233 205 220 231 239 168 210 225 244 166 182 203 199 180 167 142 135
244 242 241 242 244 248 251 253 265 262 233 213 219 209 184 199 192 193 188 177 162 165 184 150 203 215 213 217 254 180 220 252 200 171 244 239 256 198 188 192 194 189 173 153 145
243 240 238 240 243 243 238 216 221 226 289 244 240 232 229 195 183 189 180 174 173 192 142 164 228 229 139 195 211 227 245 252 271 206 238 249 253 254 201 222 212 189 176 165 149
244 238 236 235 236 233 234 228 230 246 265 252 233 231 225 216 215 194 184 187 185 169 195 211 163 184 173 165 200 226 230 240 260 151 213 275 264 247 210 207 195 188 178 170 162
247 237 229 220 226 228 232 222 206 196 267 232 211 220 204 201 221 200 188 178 185 208 180 234 170 151 183 211 201 236 221 238 237 242 260 223 280 232 206 204 199 188 182 173 166
252 233 216 211 212 208 228 203 185 145 272 127 148 176 165 179 143 181 181 196 182 167 181 199 178 185 203 213 186 257 142 206 220 237 267 212 263 239 195 223 203 191 183 177 171
232 228 212 214 209 217 204 170 155 187 240 174 137 162 151 161 134 112 171 161 143 133 267 274 119 206 211 96 187 137 105 89 95 203 252 227 218 206 212 219 181 186 187 182 177
220 220 213 214 207 200 173 153 170 221 131 180 175 174 173 154 151 168 173 185 180 188 224 193 219 182 164 129 92 186 164 195 223 210 249 152 214 252 237 180 188 188 185 183 181
217 216 217 218 216 196 176 181 216 226 209 100 121 137 181 153 184 160 155 197 211 198 147 201 231 191 190 213 185 193 192 199 214 205 223 129 226 238 319 136 149 186 182 181 183
216 216 215 213 210 193 179 200 218 207 189 147 129 164 198 196 173 169 199 216 201 193 205 193 244 191 205 142 170 179 214 178 113 97 257 208 236 250 185 193 176 167 179 186 188
230 219 212 211 205 199 191 215 226 207 143 180 206 191 185 183 176 191 180 192 201 196 212 202 242 219 146 137 199 200 145 170 217 214 231 210 240 223 202 208 184 186 192 190 192
236 217 212 209 202 198 203 219 218 215 192 181 212 203 199 176 196 198 199 175 205 198 195 157 233 139 140 209 189 174 194 209 210 220 231 258 233 218 199 192 189 198 196 193 195
248 230 210 202 194 204 207 211 215 212 216 228 231 221 209 181 196 206 204 207 194 153 176 198 188 197 206 139 306 233 222 191 201 189 245 306 248 160 161 182 187 191 196 197 201
228 245 185 191 203 200 222 216 225 204 206 210 210 201 194 188 213 207 202 201 170 169 172 170 206 219 220 218 182 219 205 217 213 45 211 198 220 160 146 209 198 189 195 201 203
255 230 192 201 209 203 206 219 210 223 222 215 227 208 177 215 222 209 215 190 199 197 195 163 183 210 225 205 156 203 205 207 206 227 227 233 241 196 206 208 200 207 207 205 206
229 207 227 204 200 196 203 208 221 220 214 204 216 213 216 225 230 234 185 151 206 217 188 191 223 218 238 233 204 207 195 197 209 224 216 242 228 202 194 202 198 207 203 200 205
200 170 201 305 279 206 183 208 214 216 182 212 220 219 221 218 213 217 225 205 202 180 191 191 228 215 241 241 234 235 217 204 211 223 235 247 240 178 198 191 194 209 200 206 209
218 215 202 251 343 261 215 198 200 148 126 203 227 225 216 226 229 240 212 221 202 185 190 184 209 183 236 217 191 262 228 205 210 218 222 224 237 141 173 196 207 202 206 213 212
Wind_Speed_850mb
7 6 5 4 4 4 4 4 5 4 7 8 9 11 10 12 14 14 11 8 9 11 12 9 6 3 4 6 6 6 6 10 15 15 12 8 10 4 2 2 5 4 3 8 14
11 10 9 9 9 9 8 9 9 9 10 11 12 13 13 13 14 13 9 9 11 13 14 12 9 7 5 4 4 3 4 9 6 8 13 11 5 5 7 3 7 5 2 2 4
17 15 14 14 14 13 13 13 12 12 12 13 14 14 14 15 14 3 3 6 11 14 15 13 12 6 6 3 3 1 1 8 9 8 8 9 5 5 5 6 4 6 8 3 3
23 22 20 18 19 18 17 16 16 16 15 15 15 15 14 11 6 4 5 7 10 15 17 18 9 3 3 3 2 4 4 7 8 10 8 6 5 6 10 5 13 7 11 4 0
30 27 25 24 23 23 22 20 19 19 19 18 17 16 15 8 11 11 9 9 12 15 17 11 6 5 5 6 5 5 6 7 9 12 9 9 14 7 12 19 15 12 9 2 4
37 34 30 28 28 27 26 25 23 21 21 20 20 18 15 11 14 15 15 16 17 18 18 12 6 8 10 5 5 3 5 8 10 10 12 12 8 9 11 22 21 15 10 8 5
42 40 37 33 32 31 30 28 27 25 23 22 21 20 22 24 17 16 17 18 20 21 19 15 10 9 13 8 3 0 8 11 15 10 11 16 8 17 21 27 18 13 8 4 3
47 44 42 39 36 34 32 31 29 27 25 23 20 18 15 21 24 28 25 22 22 22 20 16 15 14 7 15 5 2 4 8 7 9 5 16 7 14 30 25 15 9 4 2 4
53 48 46 42 40 37 34 32 30 29 26 23 20 15 12 21 27 30 25 23 23 21 20 21 21 8 11 9 6 5 11 14 5 6 5 15 2 20 26 19 13 10 8 6 3
56 53 48 45 43 40 35 33 30 30 28 23 24 10 27 15 21 27 29 26 21 26 22 15 7 8 7 15 16 13 11 10 13 6 9 12 20 19 21 17 13 13 11 8 6
59 56 51 46 43 41 35 25 22 17 31 23 10 10 5 24 22 24 32 34 26 17 16 7 14 25 36 32 7 3 8 18 5 2 7 21 25 23 20 16 19 18 14 13 12
60 59 54 47 44 41 36 22 19 7 15 30 45 38 17 25 17 30 38 24 19 18 18 10 27 28 5 17 15 11 17 28 10 6 8 17 26 27 26 22 26 27 26 23 23
63 60 55 47 40 42 43 39 26 12 12 17 42 44 43 42 22 41 50 24 12 18 32 24 5 17 18 15 21 22 27 24 17 4 9 11 30 37 15 16 17 25 27 29 34
63 62 48 37 35 42 45 38 23 5 11 13 17 19 35 35 16 34 55 19 10 28 19 17 8 14 21 20 25 28 24 19 15 8 18 4 15 10 17 19 24 31 35 36 35
63 56 50 56 28 43 43 31 34 12 15 8 10 12 27 23 28 19 45 20 17 16 14 11 18 19 21 19 23 12 10 18 13 19 12 15 14 14 8 21 27 39 40 41 40
73 60 55 57 54 41 33 38 44 9 26 11 11 14 19 9 7 13 20 10 10 10 3 8 2 9 8 6 13 26 13 10 5 4 15 30 26 13 16 16 26 42 50 51 50
73 67 69 69 72 49 41 56 12 26 9 16 13 17 17 14 11 14 24 24 20 16 28 8 18 8 9 10 5 14 22 7 9 10 14 1 21 24 14 10 15 48 56 52 51
76 73 74 76 72 62 64 17 24 31 40 7 11 15 21 18 10 14 18 24 31 11 7 21 14 30 27 35 19 34 28 13 14 11 4 5 16 11 1 13 9 30 53 56 56
79 82 83 88 83 76 62 32 35 33 29 23 13 12 20 12 12 17 25 19 26 33 24 18 13 6 8 7 28 16 20 5 8 3 5 12 10 14 8 11 14 28 49 58 60
94 92 102 99 94 91 37 45 36 28 20 28 41 29 34 26 25 31 29 17 16 40 22 11 11 3 5 6 1 11 21 9 8 11 13 11 13 18 18 27 21 29 49 56 57
53 37 85 107 107 78 32 42 52 34 33 33 40 30 18 24 32 22 26 12 28 24 43 9 9 7 12 23 34 13 14 9 6 9 8 9 11 11 25 30 36 44 51 60 65
54 17 44 113 43 33 40 71 55 47 37 30 14 38 29 28 29 33 38 29 51 35 31 21 5 12 23 2 4 22 21 27 13 13 9 6 12 7 4 18 34 37 45 52 63
30 26 73 104 30 29 30 53 42 39 51 29 24 22 20 27 21 36 24 18 39 37 35 25 11 10 7 7 4 17 19 27 13 4 25 14 10 6 8 10 22 27 36 49 61
19 5 24 69 46 47 47 44 49 65 36 60 38 23 11 27 26 18 24 14 41 41 42 50 16 32 34 11 20 21 29 29 34 20 32 40 22 15 16 18 23 29 38 47 61
26 10 9 9 24 30 43 24 51 43 51 54 29 52 49 34 37 47 18 8 10 18 18 23 30 39 42 19 13 16 36 42 51 62 31 40 40 28 30 30 38 39 39 44 59
24 9 5 7 8 33 31 35 43 39 22 41 48 48 44 51 51 31 39 27 20 17 18 4 25 33 38 41 29 26 33 50 55 54 52 31 31 16 39 24 22 35 41 51 64
43 39 20 8 1 9 19 28 27 16 3 8 25 39 44 56 57 43 19 31 24 31 35 25 28 15 32 29 9 13 53 40 35 42 39 40 29 13 14 28 36 36 46 57 58
Wind_Direction_850mb
201 207 240 245 251 269 270 269 279 286 298 308 311 313 317 317 315 306 289 236 214 210 204 196 191 175 124 77 74 122 180 171 173 178 147 150 173 168 243 153 86 108 170 246 270
232 243 251 261 267 270 270 274 281 293 301 310 311 311 316 318 315 296 267 229 208 194 187 188 186 160 96 75 31 271 237 163 169 163 152 146 165 168 186 171 147 124 29 325 309
252 254 260 262 263 265 268 272 279 287 294 302 306 309 313 321 317 261 209 197 184 182 179 177 156 142 105 86 27 32 272 146 176 166 146 154 181 157 199 204 116 158 179 154 113
250 257 263 262 266 265 267 273 278 281 287 293 299 304 306 312 282 210 179 156 163 161 160 155 153 93 105 158 113 197 153 157 145 188 162 191 157 198 213 173 193 189 183 175 338
249 252 258 263 262 266 269 270 274 280 286 291 295 302 307 283 250 229 218 204 183 173 173 179 173 150 197 154 159 206 180 197 176 192 220 211 222 242 179 190 207 194 168 195 301
253 253 253 256 259 260 265 270 273 275 279 285 290 293 290 257 254 239 231 218 208 199 195 196 200 172 124 158 228 148 221 251 244 218 210 212 218 193 194 188 179 170 180 189 202
250 255 255 253 253 256 259 263 268 270 275 280 284 285 277 261 252 234 228 219 212 206 209 207 196 167 145 142 150 31 282 276 231 205 217 180 203 225 173 163 159 168 165 145 108
246 251 254 254 251 252 258 262 264 267 272 278 280 279 257 257 245 234 224 216 210 207 205 196 178 158 123 134 76 258 261 255 132 167 171 195 209 157 166 165 157 142 127 67 26
246 246 249 250 250 250 255 260 263 266 270 272 272 253 255 246 233 229 215 211 202 192 185 178 166 128 138 190 202 214 255 228 283 188 152 217 215 156 174 185 175 168 168 171 124
244 243 244 246 248 250 252 257 262 267 267 269 252 253 235 223 214 210 202 189 171 168 145 158 134 179 178 198 233 205 220 231 239 168 210 225 244 166 182 203 199 180 167 142 135
244 242 241 242 244 248 251 253 265 262 233 213 219 209 184 199 192 193 188 177 162 165 184 150 203 215 213 217 254 180 220 252 200 171 244 239 256 198 188 192 194 189 173 153 145
243 240 238 240 243 243 238 216 221 226 289 244 240 232 229 195 183 189 180 174 173 192 142 164 228 229 139 195 211 227 245 252 271 206 238 249 253 254 201 222 212 189 176 165 149
244 238 236 235 236 233 234 228 230 246 265 252 233 231 225 216 215 194 184 187 185 169 195 211 163 184 173 165 200 226 230 240 260 151 213 275 264 247 210 207 195 188 178 170 162
247 237 229 220 226 228 232 222 206 196 267 232 211 220 204 201 221 200 188 178 185 208 180 234 170 151 183 211 201 236 221 238 237 242 260 223 280 232 206 204 199 188 182 173 166
252 233 216 211 212 208 228 203 185 145 272 127 148 176 165 179 143 181 181 196 182 167 181 199 178 185 203 213 186 257 142 206 220 237 267 212 263 239 195 223 203 191 183 177 171
232 228 212 214 209 217 204 170 155 187 240 174 137 162 151 161 134 112 171 161 143 133 267 274 119 206 211 96 187 137 105 89 95 203 252 227 218 206 212 219 181 186 187 182 177
220 220 213 214 207 200 173 153 170 221 131 180 175 174 173 154 151 168 173 185 180 188 224 193 219 182 164 129 92 186 164 195 223 210 249 152 214 252 237 180 188 188 185 183 181
217 216 217 218 216 196 176 181 216 226 209 100 121 137 181 153 184 160 155 197 211 198 147 201 231 191 190 213 185 193 192 199 214 205 223 129 226 238 319 136 149 186 182 181 183
216 216 215 213 210 193 179 200 218 207 189 147 129 164 198 196 173 169 199 216 201 193 205 193 244 191 205 142 170 179 214 178 113 97 257 208 236 250 185 193 176 167 179 186 188
230 219 212 211 205 199 191 215 226 207 143 180 206 191 185 183 176 191 180 192 201 196 212 202 242 219 146 137 199 200 145 170 217 214 231 210 240 223 202 208 184 186 192 190 192
236 217 212 209 202 198 203 219 218 215 192 181 212 203 199 176 196 198 199 175 205 198 195 157 233 139 140 209 189 174 194 209 210 220 231 258 233 218 199 192 189 198 196 193 195
248 230 210 202 194 204 207 211 215 212 216 228 231 221 209 181 196 206 204 207 194 153 176 198 188 197 206 139 306 233 222 191 201 189 245 306 248 160 161 182 187 191 196 197 201
228 245 185 191 203 200 222 216 225 204 206 210 210 201 194 188 213 207 202 201 170 169 172 170 206 219 220 218 182 219 205 217 213 45 211 198 220 160 146 209 198 189 195 201 203
255 230 192 201 209 203 206 219 210 223 222 215 227 208 177 215 222 209 215 190 199 197 195 163 183 210 225 205 156 203 205 207 206 227 227 233 241 196 206 208 200 207 207 205 206
229 207 227 204 200 196 203 208 221 220 214 204 216 213 216 225 230 234 185 151 206 217 188 191 223 218 238 233 204 207 195 197 209 224 216 242 228 202 194 202 198 207 203 200 205
200 170 201 305 279 206 183 208 214 216 182 212 220 219 221 218 213 217 225 205 202 180 191 191 228 215 241 241 234 235 217 204 211 223 235 247 240 178 198 191 194 209 200 206 209
218 215 202 251 343 261 215 198 200 148 126 203 227 225 216 226 229 240 212 221 202 185 190 184 209 183 236 217 191 262 228 205 210 218 222 224 237 141 173 196 207 202 206 213 212